Weather History for Litchfield, MN

Change the Weather History Date:

Monday, March 11, 2013

  Actual Average Record
Temperature  
Mean Temperature 24 °F -  
Max Temperature 28 °F 36 °F 60 °F (2012)
Min Temperature 21 °F 17 °F -8 °F (1969)
Degree Days  
Heating Degree Days 40    
Moisture  
Dew Point 20 °F    
Average Humidity 81    
Maximum Humidity 93    
Minimum Humidity 69    
Precipitation  
Precipitation 0.00 in - - ()
Sea Level Pressure  
Sea Level Pressure 29.83 in    
Wind  
Wind Speed 12 mph (NW)    
Max Wind Speed 18 mph    
Max Gust Speed 23 mph    
Visibility 10 miles    
Events      
Averages and records for this station are not official NWS values.
T = Trace of Precipitation, MM = Missing Value Source: NWS Daily Summary

Daily Weather History Graph

Daily Weather History Graph

Search for Another Location

Airport:

Trip Planner

Search our weather history database for the weather conditions in past years. The results will help you decide how hot, cold, wet, or windy it might be!

Date:

Astronomy

Mar. 11, 2013 Rise Set
Actual Time 7:37 AM CDT 7:19 PM CDT
Civil Twilight 7:08 AM CDT 7:48 PM CDT
Nautical Twilight 6:34 AM CDT 8:22 PM CDT
Astronomical Twilight 5:59 AM CDT 8:57 PM CDT
Moon 7:10 AM CDT (3/11) 7:35 PM CDT (3/11)
Length of Visible Light 12h 40m
Length of Day
11h 41m
Waning Crescent, 0% of the Moon is Illuminated
Mar 11
Waning Crescent
Mar 11
New
Mar 19
First Quarter
Mar 27
Full
Apr 2
Last Quarter

Hourly Weather History & Observations

Time (CDT) Temp. Windchill Dew Point Humidity Pressure Visibility Wind Dir Wind Speed Gust Speed Precip Events Conditions
12:13 AM 26.6 °F 14.3 °F 23.0 °F 86% 29.92 in 10.0 mi North 16.1 mph 20.7 mph N/A   Overcast
12:32 AM 26.6 °F 13.4 °F 23.0 °F 86% 29.91 in 10.0 mi North 18.4 mph 23.0 mph N/A   Overcast
12:53 AM 26.6 °F 15.2 °F 21.2 °F 80% 29.90 in 10.0 mi North 13.8 mph 18.4 mph N/A   Overcast
1:13 AM 26.6 °F 15.2 °F 21.2 °F 80% 29.90 in 10.0 mi North 13.8 mph 18.4 mph N/A   Overcast
1:32 AM 26.6 °F 15.7 °F 21.2 °F 80% 29.89 in 10.0 mi North 12.7 mph 17.3 mph N/A   Overcast
1:53 AM 26.6 °F 16.2 °F 21.2 °F 80% 29.89 in 10.0 mi North 11.5 mph - N/A   Overcast
2:13 AM 26.6 °F 15.2 °F 21.2 °F 80% 29.89 in 10.0 mi North 13.8 mph 18.4 mph N/A   Overcast
2:32 AM 26.6 °F 15.2 °F 21.2 °F 80% 29.89 in 10.0 mi North 13.8 mph - N/A   Overcast
2:53 AM 26.6 °F 15.7 °F 21.2 °F 80% 29.89 in 10.0 mi North 12.7 mph - N/A   Overcast
3:13 AM 26.6 °F 16.2 °F 21.2 °F 80% 29.88 in 10.0 mi North 11.5 mph - N/A   Overcast
3:32 AM 26.6 °F 16.2 °F 21.2 °F 80% 29.87 in 10.0 mi North 11.5 mph - N/A   Overcast
3:53 AM 26.6 °F 16.8 °F 21.2 °F 80% 29.86 in 10.0 mi North 10.4 mph - N/A   Overcast
4:13 AM 26.6 °F 16.2 °F 21.2 °F 80% 29.86 in 10.0 mi North 11.5 mph - N/A   Overcast
4:32 AM 26.6 °F 16.2 °F 21.2 °F 80% 29.85 in 10.0 mi North 11.5 mph - N/A   Overcast
4:53 AM 24.8 °F 14.6 °F 21.2 °F 86% 29.84 in 10.0 mi NNW 10.4 mph 16.1 mph N/A   Overcast
5:13 AM 24.8 °F 14.6 °F 21.2 °F 86% 29.84 in 10.0 mi North 10.4 mph - N/A   Overcast
5:32 AM 24.8 °F 14.6 °F 21.2 °F 86% 29.84 in 10.0 mi NNW 10.4 mph - N/A   Overcast
5:53 AM 24.8 °F 14.6 °F 21.2 °F 86% 29.84 in 10.0 mi NNW 10.4 mph - N/A   Overcast
6:12 AM 24.8 °F 14.0 °F 21.2 °F 86% 29.84 in 10.0 mi NNW 11.5 mph - N/A   Overcast
6:33 AM 24.8 °F 14.0 °F 21.2 °F 86% 29.84 in 10.0 mi NNW 11.5 mph - N/A   Overcast
6:53 AM 24.8 °F 13.4 °F 21.2 °F 86% 29.83 in 10.0 mi NNW 12.7 mph - N/A   Overcast
7:13 AM 24.8 °F 14.0 °F 21.2 °F 86% 29.84 in 10.0 mi NNW 11.5 mph - N/A   Overcast
7:32 AM 24.8 °F 13.4 °F 21.2 °F 86% 29.83 in 10.0 mi NW 12.7 mph 16.1 mph N/A   Overcast
7:52 AM 23.0 °F 11.7 °F 21.2 °F 93% 29.84 in 10.0 mi NW 11.5 mph - N/A   Overcast
8:13 AM 23.0 °F 11.7 °F 19.4 °F 86% 29.84 in 10.0 mi NW 11.5 mph - N/A   Overcast
8:33 AM 23.0 °F 11.7 °F 19.4 °F 86% 29.84 in 10.0 mi NNW 11.5 mph 16.1 mph N/A   Overcast
8:52 AM 21.2 °F 8.9 °F 19.4 °F 93% 29.84 in 10.0 mi NNW 12.7 mph - N/A   Overcast
9:13 AM 21.2 °F 11.7 °F 19.4 °F 93% 29.84 in 10.0 mi NW 8.1 mph - N/A   Overcast
9:33 AM 21.2 °F 11.7 °F 19.4 °F 93% 29.84 in 10.0 mi NW 8.1 mph - N/A   Overcast
9:52 AM 23.0 °F 13.1 °F 19.4 °F 86% 29.83 in 10.0 mi NW 9.2 mph - N/A   Overcast
10:13 AM 23.0 °F 13.1 °F 19.4 °F 86% 29.83 in 10.0 mi NW 9.2 mph - N/A   Overcast
10:32 AM 24.8 °F 14.6 °F 19.4 °F 80% 29.83 in 10.0 mi NW 10.4 mph - N/A   Overcast
10:53 AM 24.8 °F 14.6 °F 19.4 °F 80% 29.83 in 10.0 mi NNW 10.4 mph - N/A   Overcast
11:12 AM 24.8 °F 14.6 °F 19.4 °F 80% 29.83 in 10.0 mi NW 10.4 mph - N/A   Overcast
11:33 AM 24.8 °F 14.6 °F 19.4 °F 80% 29.82 in 10.0 mi NNW 10.4 mph - N/A   Overcast
11:53 AM 26.6 °F 17.5 °F 21.2 °F 80% 29.82 in 10.0 mi NW 9.2 mph - N/A   Overcast
12:12 PM 26.6 °F 16.8 °F 21.2 °F 80% 29.82 in 10.0 mi NW 10.4 mph - N/A   Overcast
12:33 PM 26.6 °F 15.7 °F 21.2 °F 80% 29.81 in 10.0 mi NW 12.7 mph 16.1 mph N/A   Overcast
12:53 PM 26.6 °F 15.2 °F 21.2 °F 80% 29.81 in 10.0 mi NW 13.8 mph 19.6 mph N/A   Overcast
1:12 PM 26.6 °F 15.2 °F 21.2 °F 80% 29.80 in 10.0 mi NNW 13.8 mph 19.6 mph N/A   Mostly Cloudy
1:33 PM 26.6 °F 15.7 °F 19.4 °F 74% 29.79 in 10.0 mi WNW 12.7 mph 17.3 mph N/A   Scattered Clouds
1:53 PM 26.6 °F 16.2 °F 19.4 °F 74% 29.79 in 10.0 mi NW 11.5 mph - N/A   Clear
2:12 PM 28.4 °F 19.1 °F 19.4 °F 69% 29.78 in 10.0 mi NW 10.4 mph - N/A   Clear
2:33 PM 28.4 °F 18.5 °F 19.4 °F 69% 29.77 in 10.0 mi NW 11.5 mph - N/A   Scattered Clouds
2:53 PM 28.4 °F 19.1 °F 21.2 °F 74% 29.77 in 10.0 mi NW 10.4 mph - N/A   Scattered Clouds
3:12 PM 28.4 °F 19.7 °F 19.4 °F 69% 29.77 in 10.0 mi WNW 9.2 mph - N/A   Mostly Cloudy
3:53 PM 28.4 °F 19.1 °F 19.4 °F 69% 29.78 in 10.0 mi NW 10.4 mph - N/A   Scattered Clouds
4:12 PM 28.4 °F 19.1 °F 19.4 °F 69% 29.79 in 10.0 mi NW 10.4 mph - N/A   Mostly Cloudy
4:33 PM 26.6 °F 15.7 °F 17.6 °F 69% 29.79 in 10.0 mi WNW 12.7 mph 17.3 mph N/A   Scattered Clouds
4:52 PM 26.6 °F 15.2 °F 17.6 °F 69% 29.79 in 10.0 mi WNW 13.8 mph 18.4 mph N/A   Mostly Cloudy
5:13 PM 26.6 °F 17.5 °F 17.6 °F 69% 29.79 in 10.0 mi NW 9.2 mph 17.3 mph N/A   Mostly Cloudy
5:33 PM 26.6 °F 17.5 °F 19.4 °F 74% 29.79 in 10.0 mi WNW 9.2 mph - N/A   Mostly Cloudy
5:52 PM 26.6 °F 16.8 °F 19.4 °F 74% 29.79 in 10.0 mi WNW 10.4 mph - N/A   Overcast
6:13 PM 24.8 °F 15.3 °F 19.4 °F 80% 29.80 in 10.0 mi WNW 9.2 mph - N/A   Overcast
6:33 PM 24.8 °F 16.9 °F 19.4 °F 80% 29.81 in 10.0 mi WNW 6.9 mph - N/A   Overcast
6:52 PM 24.8 °F 16.1 °F 19.4 °F 80% 29.81 in 10.0 mi NW 8.1 mph - N/A   Overcast
7:13 PM 24.8 °F 16.9 °F 19.4 °F 80% 29.81 in 10.0 mi WNW 6.9 mph - N/A   Overcast
7:33 PM 24.8 °F 17.9 °F 19.4 °F 80% 29.81 in 10.0 mi WNW 5.8 mph - N/A   Mostly Cloudy
7:52 PM 23.0 °F 15.8 °F 17.6 °F 80% 29.82 in 10.0 mi WNW 5.8 mph - N/A   Scattered Clouds
8:13 PM 21.2 °F 13.6 °F 17.6 °F 86% 29.82 in 10.0 mi WNW 5.8 mph - N/A   Clear
8:33 PM 21.2 °F 14.9 °F 17.6 °F 86% 29.83 in 10.0 mi WNW 4.6 mph - N/A   Clear
8:52 PM 21.2 °F 14.9 °F 17.6 °F 86% 29.84 in 10.0 mi West 4.6 mph - N/A   Mostly Cloudy
9:13 PM 21.2 °F 13.6 °F 17.6 °F 86% 29.83 in 10.0 mi WNW 5.8 mph - N/A   Overcast
9:33 PM 21.2 °F 11.7 °F 17.6 °F 86% 29.84 in 10.0 mi West 8.1 mph - N/A   Overcast
9:52 PM 23.0 °F 14.7 °F 17.6 °F 80% 29.84 in 10.0 mi West 6.9 mph - N/A   Overcast
10:13 PM 23.0 °F 13.9 °F 15.8 °F 74% 29.84 in 10.0 mi West 8.1 mph - N/A   Overcast
10:33 PM 21.2 °F 12.6 °F 15.8 °F 80% 29.85 in 10.0 mi West 6.9 mph - N/A   Overcast
10:52 PM 21.2 °F 12.6 °F 15.8 °F 80% 29.85 in 10.0 mi West 6.9 mph - N/A   Overcast
11:13 PM 21.2 °F 13.6 °F 15.8 °F 80% 29.85 in 10.0 mi West 5.8 mph - N/A   Overcast
11:33 PM 21.2 °F 13.6 °F 15.8 °F 80% 29.84 in 10.0 mi West 5.8 mph - N/A   Overcast
11:52 PM 21.2 °F 14.9 °F 15.8 °F 80% 29.84 in 10.0 mi West 4.6 mph - N/A   Overcast